| time (UTC) | temp C | wind direction | speed KPH | gust KPH | rain 1hr cm | rain 24hr cm | rain mn cm | humidity % | barometer mb |
| 20260906134931 | 20 | 157 | 8.0 | 19.3 | 0.00 | 0.00 | 0.00 | 95 | 1069.5 |
| 20260906134426 | 20 | 143 | 11.3 | 14.5 | 0.00 | 0.00 | 0.00 | 96 | 1069.3 |
| 20260906133921 | 20 | 146 | 3.2 | 11.3 | 0.00 | 0.00 | 0.00 | 97 | 1069.4 |
| 20260906133417 | 20 | 139 | 6.4 | 8.0 | 0.00 | 0.00 | 0.00 | 97 | 1069.6 |
| 20260906132913 | 20 | 120 | 8.0 | 16.1 | 0.00 | 0.00 | 0.00 | 98 | 1069.5 |
| 20260906132408 | 20 | 153 | 8.0 | 9.7 | 0.00 | 0.00 | 0.00 | 99 | 1069.4 |
| 20260906131903 | 20 | 142 | 9.7 | 14.5 | 0.00 | 0.00 | 0.00 | 99 | 1069.2 |
| 20260906131358 | 20 | 160 | 6.4 | 12.9 | 0.00 | 0.00 | 0.00 | 99 | 1069.3 |
| 20260906130855 | 20 | 169 | 4.8 | 12.9 | 0.00 | 0.00 | 0.00 | 99 | 1069.2 |
| 20260906130354 | 19 | 107 | 4.8 | 9.7 | 0.00 | 0.00 | 0.00 | 99 | 1069.3 |
| 20260906125853 | 19 | 144 | 6.4 | 9.7 | 0.00 | 0.00 | 0.00 | 99 | 1069.1 |
| 20260906125350 | 19 | 137 | 6.4 | 9.7 | 0.00 | 0.00 | 0.00 | 99 | 1069.0 |
| 20260906124844 | 19 | 95 | 8.0 | 9.7 | 0.00 | 0.00 | 0.00 | 99 | 1069.1 |
| 20260906124341 | 20 | 101 | 8.0 | 9.7 | 0.00 | 0.00 | 0.00 | 99 | 1068.9 |
| 20260906123840 | 20 | 80 | 6.4 | 8.0 | 0.00 | 0.00 | 0.00 | 99 | 1069.1 |
| 20260906123335 | 20 | 146 | 6.4 | 9.7 | 0.00 | 0.00 | 0.00 | 99 | 1068.8 |
| 20260906122834 | 19 | 142 | 8.0 | 9.7 | 0.00 | 0.00 | 0.00 | 99 | 1068.9 |
| 20260906122330 | 19 | 148 | 9.7 | 14.5 | 0.00 | 0.00 | 0.00 | 99 | 1068.9 |
| 20260906121826 | 19 | 141 | 6.4 | 9.7 | 0.00 | 0.00 | 0.00 | 99 | 1068.9 |
| 20260906121322 | 19 | 132 | 6.4 | 9.7 | 0.00 | 0.00 | 0.00 | 99 | 1068.8 |
| 20260906120818 | 19 | 110 | 3.2 | 8.0 | 0.00 | 0.00 | 0.00 | 99 | 1068.9 |
| 20260906120314 | 19 | 145 | 4.8 | 8.0 | 0.00 | 0.00 | 0.00 | 99 | 1068.9 |
| 20260906115810 | 19 | 142 | 4.8 | 8.0 | 0.00 | 0.00 | 0.00 | 99 | 1068.9 |
| 20260906115306 | 19 | 122 | 0.0 | 9.7 | 0.00 | 0.00 | 0.00 | 99 | 1068.9 |
| 20260906114804 | 19 | 129 | 4.8 | 9.7 | 0.00 | 0.00 | 0.00 | 99 | 1068.8 |
| 20260906114300 | 19 | 125 | 3.2 | 9.7 | 0.00 | 0.00 | 0.00 | 99 | 1068.7 |
| 20260906113755 | 19 | 134 | 8.0 | 9.7 | 0.00 | 0.00 | 0.00 | 99 | 1068.7 |
| 20260906113254 | 19 | 130 | 6.4 | 9.7 | 0.00 | 0.00 | 0.00 | 99 | 1068.6 |
| 20260906112755 | 19 | 136 | 4.8 | 8.0 | 0.00 | 0.00 | 0.00 | 99 | 1068.7 |
| 20260906112251 | 19 | 118 | 6.4 | 9.7 | 0.00 | 0.00 | 0.00 | 99 | 1068.5 |
| 20260906111750 | 19 | 126 | 6.4 | 9.7 | 0.00 | 0.00 | 0.00 | 99 | 1068.7 |
| 20260906111249 | 19 | 138 | 11.3 | 12.9 | 0.00 | 0.00 | 0.00 | 99 | 1068.7 |
| 20260906110745 | 19 | 154 | 0.0 | 6.4 | 0.00 | 0.00 | 0.00 | 99 | 1068.7 |
| 20260906110241 | 19 | 137 | 6.4 | 8.0 | 0.00 | 0.00 | 0.00 | 99 | 1068.5 |
| 20260906105740 | 19 | 150 | 6.4 | 8.0 | 0.00 | 0.00 | 0.00 | 99 | 1068.4 |
| 20260906105236 | 19 | 279 | 3.2 | 9.7 | 0.00 | 0.00 | 0.00 | 99 | 1068.3 |
| 20260906104731 | 19 | 144 | 8.0 | 16.1 | 0.00 | 0.00 | 0.00 | 99 | 1068.1 |
| 20260906104230 | 19 | 140 | 6.4 | 14.5 | 0.00 | 0.00 | 0.00 | 99 | 1068.1 |
| 20260906103728 | 20 | 138 | 9.7 | 14.5 | 0.00 | 0.00 | 0.00 | 99 | 1068.1 |
| 20260906103227 | 20 | 141 | 12.9 | 14.5 | 0.00 | 0.00 | 0.00 | 99 | 1067.9 |
| 20260906102723 | 20 | 139 | 8.0 | 12.9 | 0.00 | 0.00 | 0.00 | 99 | 1067.7 |
| 20260906102222 | 20 | 150 | 8.0 | 9.7 | 0.00 | 0.00 | 0.00 | 99 | 1067.8 |
| 20260906101717 | 20 | 120 | 4.8 | 9.7 | 0.00 | 0.00 | 0.00 | 99 | 1067.7 |
| 20260906101213 | 20 | 120 | 4.8 | 11.3 | 0.00 | 0.00 | 0.00 | 99 | 1067.8 |
| 20260906100708 | 20 | 118 | 3.2 | 8.0 | 0.00 | 0.00 | 0.00 | 99 | 1067.7 |
| 20260906100202 | 20 | 108 | 6.4 | 9.7 | 0.00 | 0.00 | 0.00 | 99 | 1067.7 |
| 20260906095657 | 20 | 110 | 4.8 | 9.7 | 0.00 | 0.00 | 0.00 | 99 | 1067.7 |
| 20260906095153 | 20 | 125 | 4.8 | 11.3 | 0.00 | 0.00 | 0.00 | 99 | 1067.6 |
| 20260906094652 | 20 | 105 | 4.8 | 11.3 | 0.00 | 0.00 | 0.00 | 99 | 1067.6 |
| 20260906094148 | 20 | 131 | 6.4 | 11.3 | 0.00 | 0.00 | 0.00 | 99 | 1067.3 |
| 20260906093644 | 20 | 124 | 4.8 | 14.5 | 0.00 | 0.00 | 0.00 | 99 | 1067.6 |
| 20260906093143 | 20 | 115 | 4.8 | 8.0 | 0.00 | 0.00 | 0.00 | 99 | 1067.4 |
| 20260906092638 | 20 | 137 | 8.0 | 9.7 | 0.00 | 0.00 | 0.00 | 99 | 1067.5 |
| 20260906092138 | 20 | 146 | 8.0 | 9.7 | 0.00 | 0.00 | 0.00 | 99 | 1067.1 |
| 20260906091635 | 20 | 162 | 8.0 | 11.3 | 0.00 | 0.00 | 0.00 | 99 | 1067.2 |
| 20260906091131 | 20 | 127 | 8.0 | 12.9 | 0.00 | 0.00 | 0.00 | 99 | 1067.0 |
| 20260906090627 | 20 | 129 | 6.4 | 11.3 | 0.00 | 0.00 | 0.00 | 99 | 1067.3 |
| 20260906090126 | 20 | 151 | 6.4 | 9.7 | 0.00 | 0.00 | 0.00 | 99 | 1067.2 |
| 20260906085625 | 20 | 138 | 9.7 | 9.7 | 0.00 | 0.00 | 0.00 | 99 | 1067.1 |
| 20260906085120 | 20 | 128 | 4.8 | 12.9 | 0.00 | 0.00 | 0.00 | 99 | 1067.0 |
| 20260906084615 | 20 | 121 | 6.4 | 11.3 | 0.00 | 0.00 | 0.00 | 99 | 1067.1 |
| 20260906084113 | 20 | 116 | 4.8 | 9.7 | 0.00 | 0.00 | 0.00 | 99 | 1066.9 |
| 20260906083609 | 20 | 81 | 6.4 | 9.7 | 0.00 | 0.00 | 0.00 | 99 | 1067.2 |
| 20260906083109 | 20 | 100 | 6.4 | 11.3 | 0.00 | 0.00 | 0.00 | 99 | 1067.2 |
| 20260906082604 | 20 | 138 | 6.4 | 9.7 | 0.00 | 0.00 | 0.00 | 98 | 1067.4 |
| 20260906082100 | 20 | 93 | 6.4 | 6.4 | 0.00 | 0.00 | 0.00 | 98 | 1067.4 |
| 20260906081555 | 20 | 105 | 3.2 | 6.4 | 0.00 | 0.00 | 0.00 | 98 | 1067.4 |
| 20260906081051 | 20 | 118 | 3.2 | 8.0 | 0.00 | 0.00 | 0.00 | 98 | 1067.5 |
| 20260906080548 | 20 | 92 | 3.2 | 8.0 | 0.00 | 0.00 | 0.00 | 98 | 1067.4 |
| 20260906080043 | 20 | 103 | 3.2 | 11.3 | 0.00 | 0.00 | 0.00 | 98 | 1067.3 |
| 20260906075543 | 20 | 155 | 6.4 | 16.1 | 0.00 | 0.00 | 0.00 | 98 | 1067.4 |
| 20260906075038 | 20 | 135 | 6.4 | 9.7 | 0.00 | 0.00 | 0.00 | 98 | 1067.6 |
| 20260906074533 | 20 | 144 | 6.4 | 11.3 | 0.00 | 0.00 | 0.00 | 97 | 1067.4 |
| 20260906074031 | 20 | 122 | 9.7 | 12.9 | 0.00 | 0.00 | 0.00 | 97 | 1067.5 |
| 20260906073526 | 20 | 140 | 6.4 | 12.9 | 0.00 | 0.00 | 0.00 | 97 | 1067.3 |
| 20260906073022 | 20 | 165 | 6.4 | 11.3 | 0.00 | 0.00 | 0.00 | 97 | 1067.3 |
| 20260906072517 | 20 | 112 | 4.8 | 9.7 | 0.00 | 0.00 | 0.00 | 97 | 1067.6 |
| 20260906072014 | 20 | 150 | 4.8 | 9.7 | 0.00 | 0.00 | 0.00 | 97 | 1067.7 |
| 20260906071509 | 20 | 134 | 8.0 | 11.3 | 0.00 | 0.00 | 0.00 | 97 | 1067.5 |
| 20260906071004 | 20 | 142 | 3.2 | 8.0 | 0.00 | 0.00 | 0.00 | 97 | 1067.7 |
| 20260906070500 | 20 | 152 | 6.4 | 9.7 | 0.00 | 0.00 | 0.00 | 98 | 1067.7 |
| 20260906065955 | 20 | 149 | 11.3 | 12.9 | 0.00 | 0.00 | 0.00 | 98 | 1067.5 |
| 20260906065450 | 20 | 153 | 6.4 | 8.0 | 0.00 | 0.00 | 0.00 | 98 | 1067.6 |
| 20260906064945 | 20 | 101 | 3.2 | 9.7 | 0.00 | 0.00 | 0.00 | 98 | 1067.7 |
| 20260906064442 | 20 | 116 | 3.2 | 8.0 | 0.00 | 0.00 | 0.00 | 98 | 1067.6 |
| 20260906063941 | 20 | 134 | 4.8 | 9.7 | 0.00 | 0.00 | 0.00 | 98 | 1067.5 |
| 20260906063437 | 20 | 178 | 3.2 | 9.7 | 0.00 | 0.00 | 0.00 | 98 | 1067.9 |
| 20260906062932 | 20 | 144 | 3.2 | 8.0 | 0.00 | 0.00 | 0.00 | 98 | 1067.9 |
| 20260906062427 | 20 | 92 | 3.2 | 4.8 | 0.00 | 0.00 | 0.00 | 98 | 1067.8 |
| 20260906061922 | 20 | 93 | 3.2 | 6.4 | 0.00 | 0.00 | 0.00 | 98 | 1067.8 |
| 20260906061418 | 20 | 127 | 1.6 | 4.8 | 0.00 | 0.00 | 0.00 | 98 | 1068.1 |
| 20260906060912 | 20 | 49 | 0.0 | 3.2 | 0.00 | 0.00 | 0.00 | 98 | 1067.8 |
| 20260906060410 | 20 | 104 | 0.0 | 3.2 | 0.00 | 0.00 | 0.00 | 98 | 1067.8 |
| 20260906055905 | 20 | 86 | 4.8 | 4.8 | 0.00 | 0.00 | 0.00 | 98 | 1068.1 |
| 20260906055401 | 20 | 104 | 1.6 | 4.8 | 0.00 | 0.00 | 0.00 | 98 | 1068.1 |
| 20260906054856 | 20 | 110 | 3.2 | 4.8 | 0.00 | 0.00 | 0.00 | 98 | 1068.1 |
| 20260906054351 | 20 | 100 | 1.6 | 3.2 | 0.00 | 0.00 | 0.00 | 98 | 1068.3 |
| 20260906053847 | 20 | 104 | 0.0 | 3.2 | 0.00 | 0.00 | 0.00 | 98 | 1068.1 |
| 20260906053343 | 21 | 123 | 1.6 | 3.2 | 0.00 | 0.00 | 0.00 | 97 | 1067.9 |
| 20260906052838 | 21 | 107 | 1.6 | 4.8 | 0.00 | 0.00 | 0.00 | 97 | 1068.2 |
| 20260906052335 | 21 | 125 | 1.6 | 4.8 | 0.00 | 0.00 | 0.00 | 97 | 1068.3 |
| 20260906051831 | 21 | 103 | 1.6 | 3.2 | 0.00 | 0.00 | 0.00 | 98 | 1068.2 |
| 20260906051331 | 21 | 79 | 3.2 | 3.2 | 0.00 | 0.00 | 0.00 | 97 | 1068.2 |
| 20260906050827 | 21 | 141 | 1.6 | 3.2 | 0.00 | 0.00 | 0.00 | 97 | 1067.8 |
| 20260906050322 | 21 | 112 | 4.8 | 6.4 | 0.00 | 0.00 | 0.00 | 97 | 1067.8 |
| 20260906045820 | 21 | 88 | 1.6 | 4.8 | 0.00 | 0.00 | 0.00 | 97 | 1067.8 |
| 20260906045315 | 21 | 140 | 3.2 | 4.8 | 0.00 | 0.00 | 0.00 | 97 | 1067.9 |
| 20260906044811 | 21 | 140 | 3.2 | 4.8 | 0.00 | 0.00 | 0.00 | 97 | 1068.1 |
| 20260906044311 | 21 | 72 | 1.6 | 3.2 | 0.00 | 0.00 | 0.00 | 97 | 1067.9 |
| 20260906043806 | 21 | 116 | 4.8 | 4.8 | 0.00 | 0.00 | 0.00 | 97 | 1067.8 |
| 20260906043303 | 21 | 112 | 3.2 | 3.2 | 0.00 | 0.00 | 0.00 | 97 | 1067.8 |
| 20260906042803 | 21 | 156 | 0.0 | 3.2 | 0.00 | 0.00 | 0.00 | 97 | 1067.9 |
| 20260906042302 | 21 | 100 | 3.2 | 3.2 | 0.00 | 0.00 | 0.00 | 98 | 1067.9 |
| 20260906041757 | 21 | 129 | 0.0 | 4.8 | 0.00 | 0.00 | 0.00 | 98 | 1067.9 |
| 20260906041252 | 21 | 130 | 3.2 | 3.2 | 0.00 | 0.00 | 0.00 | 98 | 1067.9 |
| 20260906040748 | 21 | 106 | 3.2 | 3.2 | 0.00 | 0.00 | 0.00 | 98 | 1067.8 |
| 20260906040243 | 21 | 105 | 3.2 | 3.2 | 0.00 | 0.00 | 0.00 | 98 | 1067.7 |
| 20260906035738 | 21 | 116 | 0.0 | 1.6 | 0.00 | 0.00 | 0.00 | 98 | 1068.1 |
| 20260906035234 | 21 | 70 | 1.6 | 3.2 | 0.00 | 0.00 | 0.00 | 98 | 1067.7 |
| 20260906034734 | 21 | 13 | 0.0 | 1.6 | 0.00 | 0.00 | 0.00 | 98 | 1068.1 |
| 20260906034229 | 21 | 84 | 3.2 | 3.2 | 0.00 | 0.00 | 0.00 | 97 | 1068.2 |
| 20260906033725 | 21 | 116 | 0.0 | 3.2 | 0.00 | 0.00 | 0.00 | 97 | 1068.1 |
| 20260906033224 | 21 | 86 | 1.6 | 3.2 | 0.00 | 0.00 | 0.00 | 97 | 1067.9 |
| 20260906032721 | 21 | 119 | 1.6 | 1.6 | 0.00 | 0.00 | 0.00 | 97 | 1067.9 |
| 20260906032221 | 21 | 101 | 1.6 | 3.2 | 0.00 | 0.00 | 0.00 | 97 | 1067.8 |
| 20260906031716 | 21 | 49 | 0.0 | 1.6 | 0.00 | 0.00 | 0.00 | 97 | 1067.7 |
| 20260906031211 | 21 | 79 | 3.2 | 3.2 | 0.00 | 0.00 | 0.00 | 97 | 1067.8 |
| 20260906030706 | 21 | 67 | 1.6 | 3.2 | 0.00 | 0.00 | 0.00 | 97 | 1067.7 |
| 20260906030201 | 21 | 89 | 3.2 | 4.8 | 0.00 | 0.00 | 0.00 | 97 | 1067.7 |
| 20260906025700 | 21 | 73 | 3.2 | 4.8 | 0.00 | 0.00 | 0.00 | 97 | 1067.6 |
| 20260906025159 | 22 | 75 | 1.6 | 3.2 | 0.00 | 0.00 | 0.00 | 96 | 1067.6 |
| 20260906024654 | 22 | 88 | 1.6 | 3.2 | 0.00 | 0.00 | 0.00 | 96 | 1067.5 |
| 20260906024153 | 22 | 97 | 3.2 | 3.2 | 0.00 | 0.00 | 0.00 | 96 | 1067.4 |
| 20260906023649 | 22 | 92 | 1.6 | 3.2 | 0.00 | 0.00 | 0.00 | 96 | 1067.4 |
| 20260906023149 | 22 | 91 | 1.6 | 3.2 | 0.00 | 0.00 | 0.00 | 96 | 1067.4 |
| 20260906022644 | 22 | 118 | 3.2 | 3.2 | 0.00 | 0.00 | 0.00 | 96 | 1067.1 |
| 20260906022140 | 22 | 81 | 4.8 | 4.8 | 0.00 | 0.00 | 0.00 | 96 | 1067.2 |
| 20260906021636 | 22 | 79 | 1.6 | 3.2 | 0.00 | 0.00 | 0.00 | 95 | 1067.1 |
| 20260906021135 | 22 | 97 | 1.6 | 3.2 | 0.00 | 0.00 | 0.00 | 95 | 1067.0 |
| 20260906020634 | 22 | 126 | 3.2 | 4.8 | 0.00 | 0.00 | 0.00 | 95 | 1066.9 |
| 20260906020129 | 22 | 101 | 0.0 | 1.6 | 0.00 | 0.00 | 0.00 | 94 | 1066.9 |
| 20260906015624 | 22 | 102 | 3.2 | 4.8 | 0.00 | 0.00 | 0.00 | 94 | 1066.8 |
| 20260906015123 | 22 | 98 | 3.2 | 3.2 | 0.00 | 0.00 | 0.00 | 94 | 1066.7 |
| 20260906014623 | 22 | 101 | 3.2 | 3.2 | 0.00 | 0.00 | 0.00 | 94 | 1066.5 |
| 20260906014119 | 22 | 98 | 3.2 | 4.8 | 0.00 | 0.00 | 0.00 | 93 | 1066.4 |
| 20260906013614 | 22 | 115 | 3.2 | 3.2 | 0.00 | 0.00 | 0.00 | 93 | 1066.5 |
| 20260906013109 | 22 | 108 | 1.6 | 4.8 | 0.00 | 0.00 | 0.00 | 93 | 1066.4 |
| 20260906012605 | 22 | 139 | 0.0 | 4.8 | 0.00 | 0.00 | 0.00 | 93 | 1066.2 |
| 20260906012104 | 22 | 102 | 3.2 | 3.2 | 0.00 | 0.00 | 0.00 | 93 | 1066.3 |
| 20260906011601 | 22 | 80 | 1.6 | 3.2 | 0.00 | 0.00 | 0.00 | 93 | 1066.1 |
| 20260906011101 | 22 | 138 | 3.2 | 3.2 | 0.00 | 0.00 | 0.00 | 93 | 1066.2 |
| 20260906010556 | 22 | 95 | 0.0 | 6.4 | 0.00 | 0.00 | 0.00 | 93 | 1066.1 |
| 20260906010052 | 23 | 115 | 1.6 | 3.2 | 0.00 | 0.00 | 0.00 | 92 | 1066.0 |
| 20260906005551 | 23 | 100 | 3.2 | 6.4 | 0.00 | 0.00 | 0.00 | 92 | 1066.1 |
| 20260906005051 | 23 | 113 | 3.2 | 4.8 | 0.00 | 0.00 | 0.00 | 92 | 1066.1 |
| 20260906004550 | 23 | 138 | 3.2 | 6.4 | 0.00 | 0.00 | 0.00 | 92 | 1065.9 |
| 20260906004045 | 23 | 139 | 4.8 | 8.0 | 0.00 | 0.00 | 0.00 | 92 | 1066.0 |
| 20260906003540 | 23 | 135 | 4.8 | 8.0 | 0.00 | 0.00 | 0.00 | 92 | 1065.7 |
| 20260906003037 | 23 | 78 | 4.8 | 6.4 | 0.00 | 0.00 | 0.00 | 91 | 1065.9 |
| 20260906002537 | 23 | 132 | 4.8 | 9.7 | 0.00 | 0.00 | 0.00 | 91 | 1065.8 |
| 20260906002031 | 23 | 116 | 3.2 | 6.4 | 0.00 | 0.00 | 0.00 | 91 | 1065.9 |
| 20260906001527 | 23 | 117 | 3.2 | 4.8 | 0.00 | 0.00 | 0.00 | 91 | 1065.9 |
| 20260906001021 | 23 | 89 | 3.2 | 3.2 | 0.00 | 0.00 | 0.00 | 91 | 1066.1 |
| 20260906000517 | 23 | 97 | 1.6 | 3.2 | 0.00 | 0.00 | 0.00 | 91 | 1065.9 |
| 20260906000012 | 23 | 117 | 0.0 | 1.6 | 0.00 | 0.00 | 0.00 | 91 | 1066.1 |
| 20260905235511 | 23 | 112 | 1.6 | 4.8 | 0.00 | 0.00 | 0.00 | 90 | 1065.9 |
| 20260905235007 | 23 | 66 | 1.6 | 3.2 | 0.00 | 0.00 | 0.00 | 90 | 1065.9 |
| 20260905234503 | 23 | 86 | 4.8 | 4.8 | 0.00 | 0.00 | 0.00 | 90 | 1065.7 |
| 20260905234002 | 24 | 125 | 3.2 | 3.2 | 0.00 | 0.00 | 0.00 | 90 | 1065.7 |
| 20260905233458 | 24 | 124 | 1.6 | 4.8 | 0.00 | 0.00 | 0.00 | 89 | 1065.7 |
| 20260905232956 | 24 | 87 | 3.2 | 4.8 | 0.00 | 0.00 | 0.00 | 89 | 1065.7 |
| 20260905232453 | 24 | 106 | 0.0 | 4.8 | 0.00 | 0.00 | 0.00 | 89 | 1065.6 |
| 20260905231948 | 24 | 143 | 3.2 | 4.8 | 0.00 | 0.00 | 0.00 | 89 | 1065.7 |
| 20260905231444 | 24 | 116 | 3.2 | 6.4 | 0.00 | 0.00 | 0.00 | 89 | 1065.6 |
| 20260905230940 | 23 | 71 | 3.2 | 6.4 | 0.00 | 0.00 | 0.00 | 89 | 1065.6 |
| 20260905230438 | 23 | 99 | 1.6 | 6.4 | 0.00 | 0.00 | 0.00 | 89 | 1065.6 |
| 20260905225937 | 24 | 153 | 9.7 | 9.7 | 0.00 | 0.00 | 0.00 | 88 | 1065.6 |
| 20260905225432 | 23 | 99 | 1.6 | 6.4 | 0.00 | 0.00 | 0.00 | 88 | 1065.6 |
| 20260905224927 | 24 | 108 | 0.0 | 6.4 | 0.00 | 0.00 | 0.00 | 88 | 1065.4 |
| 20260905224423 | 24 | 114 | 4.8 | 6.4 | 0.00 | 0.00 | 0.00 | 88 | 1065.5 |
| 20260905223922 | 24 | 108 | 4.8 | 12.9 | 0.00 | 0.00 | 0.00 | 88 | 1065.5 |
| 20260905223420 | 24 | 123 | 4.8 | 6.4 | 0.00 | 0.00 | 0.00 | 88 | 1065.5 |
| 20260905222915 | 24 | 84 | 4.8 | 9.7 | 0.00 | 0.00 | 0.00 | 88 | 1065.4 |
| 20260905222414 | 24 | 107 | 3.2 | 12.9 | 0.00 | 0.00 | 0.00 | 88 | 1065.0 |
| 20260905221910 | 24 | 79 | 4.8 | 12.9 | 0.00 | 0.00 | 0.00 | 88 | 1065.1 |
| 20260905221407 | 24 | 78 | 6.4 | 12.9 | 0.00 | 0.00 | 0.00 | 88 | 1065.1 |
| 20260905220903 | 24 | 76 | 4.8 | 8.0 | 0.00 | 0.00 | 0.00 | 87 | 1065.2 |
| 20260905220359 | 24 | 98 | 3.2 | 14.5 | 0.00 | 0.00 | 0.00 | 87 | 1065.1 |
| 20260905215857 | 24 | 60 | 8.0 | 14.5 | 0.00 | 0.00 | 0.00 | 87 | 1064.9 |
| 20260905215353 | 25 | 82 | 6.4 | 14.5 | 0.00 | 0.00 | 0.00 | 86 | 1065.0 |
| 20260905214849 | 25 | 77 | 8.0 | 9.7 | 0.00 | 0.00 | 0.00 | 87 | 1065.0 |
| 20260905214344 | 24 | 93 | 4.8 | 14.5 | 0.00 | 0.00 | 0.00 | 87 | 1064.8 |
| 20260905213839 | 25 | 52 | 9.7 | 16.1 | 0.00 | 0.00 | 0.00 | 87 | 1064.9 |
| 20260905213336 | 25 | 95 | 8.0 | 16.1 | 0.00 | 0.00 | 0.00 | 86 | 1065.2 |
| 20260905212835 | 25 | 78 | 12.9 | 14.5 | 0.00 | 0.00 | 0.00 | 86 | 1065.4 |
| 20260905212330 | 25 | 77 | 4.8 | 19.3 | 0.00 | 0.00 | 0.00 | 86 | 1065.4 |
| 20260905211830 | 25 | 131 | 9.7 | 9.7 | 0.00 | 0.00 | 0.00 | 85 | 1065.7 |
| 20260905211325 | 25 | 82 | 4.8 | 12.9 | 0.00 | 0.00 | 0.00 | 85 | 1065.5 |
| 20260905210822 | 25 | 95 | 6.4 | 12.9 | 0.00 | 0.00 | 0.00 | 86 | 1065.5 |
| 20260905210321 | 25 | 52 | 6.4 | 14.5 | 0.00 | 0.00 | 0.00 | 85 | 1065.4 |
| 20260905205820 | 25 | 81 | 12.9 | 14.5 | 0.00 | 0.00 | 0.00 | 85 | 1065.6 |
| 20260905205315 | 25 | 81 | 6.4 | 12.9 | 0.00 | 0.00 | 0.00 | 85 | 1065.8 |
| 20260905204814 | 25 | 171 | 4.8 | 9.7 | 0.00 | 0.00 | 0.00 | 85 | 1065.9 |
| 20260905204311 | 25 | 57 | 8.0 | 11.3 | 0.00 | 0.00 | 0.00 | 85 | 1065.9 |
| 20260905203809 | 25 | 66 | 9.7 | 14.5 | 0.00 | 0.00 | 0.00 | 85 | 1066.0 |
| 20260905203306 | 25 | 53 | 3.2 | 11.3 | 0.00 | 0.00 | 0.00 | 86 | 1065.8 |
| 20260905202801 | 25 | 69 | 8.0 | 8.0 | 0.00 | 0.00 | 0.00 | 85 | 1066.0 |
| 20260905202255 | 25 | 202 | 3.2 | 9.7 | 0.00 | 0.00 | 0.00 | 87 | 1066.0 |
| 20260905201751 | 25 | 85 | 4.8 | 6.4 | 0.00 | 0.00 | 0.00 | 87 | 1066.2 |
| 20260905201246 | 25 | 87 | 6.4 | 8.0 | 0.00 | 0.00 | 0.00 | 86 | 1066.2 |
| 20260905200741 | 25 | 85 | 3.2 | 9.7 | 0.00 | 0.00 | 0.00 | 86 | 1066.3 |
| 20260905200237 | 25 | 58 | 1.6 | 3.2 | 0.00 | 0.00 | 0.00 | 87 | 1066.6 |
| 20260905195735 | 24 | 129 | 0.0 | 6.4 | 0.00 | 0.00 | 0.00 | 87 | 1066.6 |
| 20260905195229 | 25 | 98 | 3.2 | 4.8 | 0.00 | 0.00 | 0.00 | 87 | 1066.8 |
| 20260905194725 | 24 | 150 | 4.8 | 8.0 | 0.00 | 0.00 | 0.00 | 89 | 1066.8 |
| 20260905194225 | 23 | 126 | 0.0 | 4.8 | 0.00 | 0.00 | 0.00 | 89 | 1066.7 |
| 20260905193725 | 23 | 145 | 3.2 | 6.4 | 0.00 | 0.00 | 0.00 | 88 | 1067.0 |
| 20260905193220 | 23 | 92 | 3.2 | 6.4 | 0.00 | 0.00 | 0.00 | 89 | 1067.0 |
| 20260905192715 | 24 | 132 | 4.8 | 4.8 | 0.00 | 0.00 | 0.00 | 89 | 1066.8 |
| 20260905192212 | 24 | 87 | 3.2 | 6.4 | 0.00 | 0.00 | 0.00 | 89 | 1066.9 |
| 20260905191711 | 23 | 66 | 6.4 | 8.0 | 0.00 | 0.00 | 0.00 | 90 | 1067.0 |
| 20260905191209 | 23 | 140 | 6.4 | 6.4 | 0.00 | 0.00 | 0.00 | 90 | 1067.0 |
| 20260905190708 | 23 | 89 | 0.0 | 4.8 | 0.00 | 0.00 | 0.00 | 90 | 1067.2 |
| 20260905190207 | 23 | 132 | 3.2 | 8.0 | 0.00 | 0.00 | 0.00 | 90 | 1067.0 |
| 20260905185706 | 23 | 119 | 8.0 | 12.9 | 0.00 | 0.00 | 0.00 | 89 | 1067.2 |
| 20260905185206 | 23 | 67 | 3.2 | 9.7 | 0.00 | 0.00 | 0.00 | 89 | 1067.0 |
| 20260905184701 | 23 | 99 | 3.2 | 8.0 | 0.00 | 0.00 | 0.00 | 90 | 1067.0 |
| 20260905184200 | 23 | 16 | 1.6 | 4.8 | 0.00 | 0.00 | 0.00 | 89 | 1067.3 |
| 20260905183700 | 23 | 138 | 9.7 | 12.9 | 0.00 | 0.00 | 0.00 | 91 | 1067.1 |
| 20260905183155 | 23 | 112 | 9.7 | 9.7 | 0.00 | 0.00 | 0.00 | 91 | 1067.0 |
| 20260905182654 | 23 | 96 | 4.8 | 9.7 | 0.00 | 0.00 | 0.00 | 91 | 1067.0 |
| 20260905182154 | 23 | 141 | 4.8 | 8.0 | 0.00 | 0.00 | 0.00 | 90 | 1067.2 |
| 20260905181650 | 23 | 114 | 3.2 | 9.7 | 0.00 | 0.00 | 0.00 | 91 | 1067.3 |
| 20260905181149 | 23 | 165 | 1.6 | 6.4 | 0.00 | 0.00 | 0.00 | 91 | 1067.5 |
| 20260905180643 | 23 | 91 | 6.4 | 6.4 | 0.00 | 0.00 | 0.00 | 90 | 1067.5 |
| 20260905180139 | 23 | 145 | 3.2 | 4.8 | 0.00 | 0.00 | 0.00 | 92 | 1067.6 |
| 20260905175637 | 23 | 107 | 1.6 | 3.2 | 0.00 | 0.00 | 0.00 | 90 | 1067.5 |
| 20260905175133 | 23 | 66 | 0.0 | 3.2 | 0.00 | 0.00 | 0.00 | 92 | 1067.7 |
| 20260905174629 | 23 | 77 | 3.2 | 6.4 | 0.00 | 0.00 | 0.00 | 92 | 1067.7 |
| 20260905174124 | 23 | 89 | 0.0 | 3.2 | 0.00 | 0.00 | 0.00 | 93 | 1067.6 |
| 20260905173620 | 22 | 104 | 0.0 | 6.4 | 0.00 | 0.00 | 0.00 | 94 | 1067.8 |
| 20260905173116 | 22 | 112 | 3.2 | 3.2 | 0.00 | 0.00 | 0.00 | 94 | 1067.9 |
| 20260905172615 | 22 | 121 | 1.6 | 6.4 | 0.00 | 0.00 | 0.00 | 95 | 1067.9 |
| 20260905172110 | 22 | 80 | 4.8 | 6.4 | 0.00 | 0.00 | 0.00 | 95 | 1067.8 |
| 20260905171606 | 22 | 128 | 4.8 | 4.8 | 0.00 | 0.00 | 0.00 | 95 | 1068.1 |
| 20260905171102 | 22 | 170 | 0.0 | 3.2 | 0.00 | 0.00 | 0.00 | 96 | 1068.1 |
| 20260905170558 | 22 | 160 | 3.2 | 6.4 | 0.00 | 0.00 | 0.00 | 95 | 1068.1 |
| 20260905170053 | 22 | 52 | 3.2 | 6.4 | 0.00 | 0.00 | 0.00 | 95 | 1068.1 |
| 20260905165548 | 22 | 156 | 3.2 | 4.8 | 0.00 | 0.00 | 0.00 | 95 | 1067.8 |
| 20260905165043 | 22 | 254 | 0.0 | 6.4 | 0.00 | 0.00 | 0.00 | 96 | 1067.8 |
| 20260905164543 | 22 | 88 | 3.2 | 9.7 | 0.00 | 0.00 | 0.00 | 96 | 1067.6 |
| 20260905164038 | 22 | 137 | 4.8 | 9.7 | 0.00 | 0.00 | 0.00 | 96 | 1067.7 |
| 20260905163534 | 22 | 95 | 6.4 | 9.7 | 0.00 | 0.00 | 0.00 | 96 | 1067.5 |
| 20260905163030 | 22 | 124 | 4.8 | 6.4 | 0.00 | 0.00 | 0.00 | 95 | 1067.5 |
| 20260905162526 | 22 | 145 | 4.8 | 8.0 | 0.00 | 0.00 | 0.00 | 95 | 1067.5 |
| 20260905162021 | 22 | 205 | 1.6 | 3.2 | 0.00 | 0.00 | 0.00 | 96 | 1067.4 |
| 20260905161520 | 22 | 98 | 6.4 | 8.0 | 0.00 | 0.00 | 0.00 | 96 | 1067.2 |
| 20260905161018 | 21 | 116 | 4.8 | 9.7 | 0.00 | 0.00 | 0.00 | 97 | 1067.4 |
| 20260905160517 | 21 | 132 | 6.4 | 9.7 | 0.00 | 0.00 | 0.00 | 98 | 1067.5 |
| 20260905160017 | 21 | 71 | 4.8 | 9.7 | 0.00 | 0.00 | 0.00 | 98 | 1067.6 |
| 20260905155517 | 21 | 128 | 4.8 | 12.9 | 0.00 | 0.00 | 0.00 | 99 | 1067.7 |
| 20260905155015 | 21 | 120 | 4.8 | 8.0 | 0.00 | 0.00 | 0.00 | 99 | 1067.6 |
| 20260905154511 | 21 | 149 | 6.4 | 6.4 | 0.00 | 0.00 | 0.00 | 99 | 1067.6 |
| 20260905154007 | 21 | 304 | 0.0 | 1.6 | 0.00 | 0.00 | 0.00 | 99 | 1067.6 |
| 20260905153503 | 21 | 92 | 4.8 | 6.4 | 0.00 | 0.00 | 0.00 | 99 | 1067.4 |
| 20260905152957 | 21 | 110 | 4.8 | 4.8 | 0.00 | 0.00 | 0.00 | 99 | 1067.3 |
| 20260905152456 | 21 | 84 | 3.2 | 9.7 | 0.00 | 0.00 | 0.00 | 99 | 1067.2 |
| 20260905151951 | 21 | 96 | 3.2 | 4.8 | 0.00 | 0.00 | 0.00 | 99 | 1067.2 |
| 20260905151447 | 20 | 122 | 6.4 | 9.7 | 0.00 | 0.00 | 0.00 | 99 | 1067.2 |
| 20260905150947 | 20 | 81 | 0.0 | 6.4 | 0.00 | 0.00 | 0.00 | 99 | 1067.3 |
| 20260905150442 | 20 | 57 | 4.8 | 9.7 | 0.00 | 0.00 | 0.00 | 99 | 1067.2 |
| 20260905145938 | 20 | 144 | 4.8 | 8.0 | 0.00 | 0.00 | 0.00 | 99 | 1066.9 |
| 20260905145439 | 20 | 134 | 3.2 | 8.0 | 0.00 | 0.00 | 0.00 | 99 | 1066.8 |
| 20260905144933 | 20 | 4 | 0.0 | 4.8 | 0.00 | 0.00 | 0.00 | 99 | 1066.9 |
| 20260905144429 | 20 | 70 | 3.2 | 8.0 | 0.00 | 0.00 | 0.00 | 99 | 1066.9 |
| 20260905143927 | 20 | 0 | 0.0 | 8.0 | 0.00 | 0.00 | 0.00 | 99 | 1067.1 |
| 20260905143427 | 20 | 105 | 3.2 | 6.4 | 0.00 | 0.00 | 0.00 | 99 | 1067.1 |
| 20260905142926 | 20 | 84 | 3.2 | 8.0 | 0.00 | 0.00 | 0.00 | 99 | 1067.1 |
| 20260905142425 | 20 | 131 | 3.2 | 6.4 | 0.00 | 0.00 | 0.00 | 99 | 1066.9 |
| 20260905141921 | 20 | 128 | 3.2 | 6.4 | 0.00 | 0.00 | 0.00 | 99 | 1066.9 |
| 20260905141416 | 20 | 131 | 3.2 | 4.8 | 0.00 | 0.00 | 0.00 | 99 | 1066.8 |
| 20260905140912 | 20 | 77 | 6.4 | 9.7 | 0.00 | 0.00 | 0.00 | 99 | 1066.8 |
| 20260905140407 | 21 | 96 | 3.2 | 4.8 | 0.00 | 0.00 | 0.00 | 99 | 1066.8 |
| 20260905135906 | 20 | 137 | 3.2 | 8.0 | 0.00 | 0.00 | 0.00 | 99 | 1066.7 |
| 20260905135402 | 20 | 102 | 3.2 | 8.0 | 0.00 | 0.00 | 0.00 | 99 | 1066.5 |